El Centro, CA

8:31 AM PST on November 20, 2017 (GMT -0800)
El Centro Naval Air Facility

Weather History for KNJK - April, 2013

Change the Weather History Date:

Monday, April 22, 2013

  Actual Average Record
Temperature  
Mean Temperature 73 °F -  
Max Temperature 95 °F 84 °F 102 °F (2012)
Min Temperature 53 °F 59 °F 50 °F (2007)
Cooling Degree Days 8    
Growing Degree Days 23 (Base 50)    
Moisture  
Dew Point 41 °F    
Average Humidity 34    
Maximum Humidity 69    
Minimum Humidity 13    
Precipitation  
Precipitation 0.00 in - - ()
Sea Level Pressure  
Sea Level Pressure 29.83 in    
Wind  
Wind Speed 6 mph (SE)    
Max Wind Speed 21 mph    
Max Gust Speed -    
Visibility 10 miles    
Events      
Averages and records for this station are not official NWS values.
T = Trace of Precipitation, MM = Missing Value Source: NWS Daily Summary

Daily Weather History Graph

Daily Weather History Graph

Search for Another Location

Airport or City:

Trip Planner

Search our weather history database for the weather conditions in past years. The results will help you decide how hot, cold, wet, or windy it might be!

Date:

Astronomy

Apr. 22, 2013 Rise Set
Actual Time 6:04 AM PDT 7:18 PM PDT
Civil Twilight 5:38 AM PDT 7:43 PM PDT
Nautical Twilight 5:08 AM PDT 8:14 PM PDT
Astronomical Twilight 4:36 AM PDT 8:46 PM PDT
Moon 4:20 PM PDT (4/22) 3:50 AM PDT (4/22)
Length of Visible Light 14h 05m
Length of Day
13h 13m
Waxing Gibbous, 88% of the Moon is Illuminated
Apr 22
Waxing Gibbous
Apr 25
Full
May 2
Last Quarter
May 9
New
May 17
First Quarter

Hourly Weather History & Observations

Time (PDT) Temp. Dew Point Humidity Pressure Visibility Wind Dir Wind Speed Gust Speed Precip Events Conditions
12:56 AM 64.0 °F 39.9 °F 41% 29.90 in 10.0 mi East 8.1 mph - N/A   Clear
1:56 AM 60.1 °F 45.0 °F 57% 29.89 in 10.0 mi NNE 6.9 mph - N/A   Clear
2:56 AM 57.9 °F 46.9 °F 67% 29.88 in 10.0 mi SE 5.8 mph - N/A   Clear
3:56 AM 57.9 °F 46.9 °F 67% 29.87 in 10.0 mi Calm Calm - N/A   Clear
4:56 AM 57.0 °F 46.0 °F 67% 29.88 in 10.0 mi Calm Calm - N/A   Clear
5:56 AM 53.1 °F 43.0 °F 69% 29.88 in 10.0 mi Calm Calm - N/A   Clear
6:56 AM 55.0 °F 42.1 °F 62% 29.90 in 10.0 mi ENE 5.8 mph - N/A   Clear
7:56 AM 64.0 °F 50.0 °F 60% 29.91 in 10.0 mi Calm Calm - N/A   Clear
8:56 AM 73.0 °F 51.1 °F 46% 29.91 in 10.0 mi Calm Calm - N/A   Clear
9:56 AM 78.1 °F 50.0 °F 37% 29.91 in 10.0 mi Calm Calm - N/A   Clear
10:56 AM 84.0 °F 46.0 °F 26% 29.91 in 10.0 mi Variable 3.5 mph - N/A   Partly Cloudy
11:56 AM 87.1 °F 42.1 °F 21% 29.89 in 10.0 mi East 8.1 mph - N/A   Partly Cloudy
12:56 PM 88.0 °F 41.0 °F 19% 29.85 in 10.0 mi Variable 4.6 mph - N/A   Clear
1:56 PM 90.0 °F 37.0 °F 15% 29.83 in 10.0 mi SE 8.1 mph - N/A   Clear
2:48 PM 91.4 °F 37.4 °F 15% 29.75 in 10.0 mi SE 5.8 mph - N/A   Partly Cloudy
2:56 PM 91.9 °F 39.9 °F 16% 29.79 in 10.0 mi ESE 8.1 mph - N/A   Clear
3:56 PM 93.0 °F 37.0 °F 14% 29.75 in 10.0 mi ESE 8.1 mph - N/A   Clear
4:56 PM 93.9 °F 36.0 °F 13% 29.73 in 10.0 mi ESE 8.1 mph - N/A   Clear
5:56 PM 93.0 °F 41.0 °F 16% 29.73 in 10.0 mi SE 6.9 mph - N/A   Clear
6:56 PM 88.0 °F 39.0 °F 18% 29.72 in 10.0 mi SSW 11.5 mph - N/A   Partly Cloudy
7:56 PM 82.9 °F 36.0 °F 19% 29.73 in 10.0 mi SW 10.4 mph - N/A   Clear
8:56 PM 80.1 °F 37.9 °F 22% 29.76 in 10.0 mi WSW 16.1 mph - N/A   Clear
9:56 PM 78.1 °F 37.0 °F 23% 29.78 in 10.0 mi WSW 20.7 mph - N/A   Clear
10:56 PM 75.9 °F 35.1 °F 23% 29.78 in 10.0 mi WSW 15.0 mph - N/A   Clear
11:56 PM 75.9 °F 32.0 °F 20% 29.78 in 10.0 mi WSW 16.1 mph - N/A   Clear